Content
SEND FEEDBACK

Daily
Averages
Monthly
Summary
French Polynesia

HITIAA, FRENCH POLYNESIA


Home > Oceania > French Polynesia
Elevation: 7 feet     Latitude: 17 33S     Longitude: 149 37W

WEATHER
 
SELECT A DAY
Number of Records: 207,916;   Date Range: 6/30/96 - 7/11/14
 
SHARE

PRINT THIS DATA

[ ← Previous Day ]
WEATHER ALMANAC - JANUARY 3, 2013
[ Next Day → ]
[ °C ]   °F
Weather ElementAverageHighLow
Temperature80.6 °F86 °F (10:30 am)73.4 °F (6:00 am)
Dewpoint67.3 °F69.8 °F (12:30 am)62.6 °F (5:00 am)
Humidity63.1 %78 % (12:30 am)44 % (2:00 pm)
Barometer29.75 in29.80 in (9:00 pm)29.71 in (2:30 am)
Wind Speed4.1 mph11.2 mph (11:00 am)
Weather ElementAverage
Visibility7.9 mi
Wind DirectionSE (136.4 °)

Weather ElementTotal
Precipitation---
Cooling Degree Days14.7 (Base 65)
Growing Degree Days29.7 (Base 50)
Averaged from 53 records on January 3, 2013
WEATHER CONDITIONS BREAKOUT
WIND DIRECTION BREAKOUT
WEATHER BY HOUR - JANUARY 3, 2013
[ °C ]   °F
Local TimeTemperatureDewpointHumidityBarometerVisibilityWind DirectionWind SpeedGust SpeedPrecipitationEventsConditions
12:30 AM77.0 °F69.8 °F78 %29.77 in6.2 miCalmScattered Clouds
1:00 AM77.0 °F69.8 °F78 %29.74 in6.2 miEast (90°)3.5 mphScattered Clouds
1:30 AM77.0 °F68.0 °F74 %29.74 in6.2 miEast (100°)3.5 mphScattered Clouds
2:00 AM76.0 °F69.0 °F72 %29.74 in12.0 miEast (100°)2.3 mphScattered Clouds
2:00 AM75.2 °F68.0 °F78 %29.74 in6.2 miEast (100°)2.3 mphMostly Cloudy
2:30 AM75.2 °F68.0 °F78 %29.71 in6.2 miCalmMostly Cloudy
3:00 AM75.2 °F68.0 °F78 %29.71 in6.2 miSouth (170°)5.8 mphMostly Cloudy
3:30 AM75.2 °F68.0 °F78 %29.71 in6.2 miSSE (160°)6.9 mph
4:00 AM75.2 °F66.2 °F73 %29.71 in6.2 miSouth (170°)5.8 mphPartly Cloudy
4:30 AM75.2 °F64.4 °F69 %29.71 in6.2 miVariable2.3 mph
5:00 AM74.0 °F63.0 °F61 %29.75 in37.0 miEast (80°)8.9 mphClear
5:00 AM75.2 °F62.6 °F65 %29.74 in6.2 miEast (80°)4.6 mph
6:00 AM73.4 °F64.4 °F73 %29.77 in6.2 miESE (110°)4.6 mphMostly Cloudy
6:30 AM75.2 °F66.2 °F73 %29.77 in6.2 miCalmMostly Cloudy
7:00 AM78.8 °F68.0 °F69 %29.77 in6.2 miVariable1.2 mphMostly Cloudy
7:30 AM80.6 °F66.2 °F61 %29.77 in6.2 miWest (280°)2.3 mphMostly Cloudy
8:00 AM82.0 °F67.0 °F51 %29.79 in19.0 miWSW (250°)1.2 mphPartly Cloudy
8:00 AM82.4 °F66.2 °F58 %29.77 in6.2 miVariable1.2 mphMostly Cloudy
8:30 AM84.2 °F66.2 °F55 %29.77 in6.2 miWSW (240°)3.5 mphMostly Cloudy
9:00 AM84.2 °F68.0 °F58 %29.77 in6.2 miVariable3.5 mphMostly Cloudy
9:30 AM84.2 °F68.0 °F58 %29.77 in6.2 miNorth (350°)3.5 mphMostly Cloudy
10:00 AM84.2 °F68.0 °F58 %29.77 in6.2 miNorth (350°)4.6 mphMostly Cloudy
10:30 AM86.0 °F69.8 °F58 %29.77 in6.2 miNW (310°)3.5 mphMostly Cloudy
11:00 AM85.0 °F68.0 °F47 %29.76 in19.0 miWest (270°)11.2 mphPartly Cloudy
11:00 AM86.0 °F68.0 °F55 %29.74 in6.2 miWest (270°)5.8 mphMostly Cloudy
11:30 AM84.2 °F68.0 °F58 %29.74 in6.2 miWest (260°)5.8 mphMostly Cloudy
12:00 PM86.0 °F68.0 °F55 %29.74 in6.2 miWest (280°)5.8 mphMostly Cloudy
12:30 PM86.0 °F69.8 °F58 %29.74 in6.2 miWest (280°)8.1 mphMostly Cloudy
1:00 PM86.0 °F68.0 °F55 %29.74 in6.2 miWNW (300°)8.1 mphMostly Cloudy
1:30 PM84.2 °F68.0 °F58 %29.74 in6.2 miNNE (30°)8.1 mphMostly Cloudy
2:00 PM85.0 °F66.0 °F44 %29.74 in16.0 miNE (50°)5.8 mphScattered Clouds
2:00 PM86.0 °F66.2 °F51 %29.71 in6.2 miNE (50°)5.8 mphMostly Cloudy
2:30 PM86.0 °F68.0 °F55 %29.71 in6.2 miWest (270°)5.8 mphMostly Cloudy
3:00 PM86.0 °F66.2 °F51 %29.71 in6.2 miNW (310°)5.8 mphMostly Cloudy
3:30 PM86.0 °F66.2 °F51 %29.71 in6.2 miNNE (20°)6.9 mphMostly Cloudy
4:00 PM84.2 °F66.2 °F55 %29.71 in6.2 miNE (40°)6.9 mphMostly Cloudy
4:30 PM84.2 °F66.2 °F55 %29.71 in6.2 miNW (310°)3.5 mphMostly Cloudy
5:00 PM84.0 °F66.0 °F46 %29.74 in16.0 miNW (310°)3.5 mphScattered Clouds
5:00 PM84.2 °F66.2 °F55 %29.74 in6.2 miVariable3.5 mphMostly Cloudy
5:30 PM82.4 °F68.0 °F62 %29.74 in6.2 miWNW (300°)3.5 mphMostly Cloudy
6:00 PM82.4 °F66.2 °F58 %29.77 in6.2 miNorth (350°)3.5 mphMostly Cloudy
6:30 PM80.6 °F66.2 °F61 %29.77 in6.2 miNE (40°)5.8 mphMostly Cloudy
7:00 PM80.6 °F68.0 °F65 %29.77 in6.2 miVariable3.5 mphMostly Cloudy
7:30 PM80.6 °F68.0 °F65 %29.77 in6.2 miCalmMostly Cloudy
8:00 PM79.0 °F68.0 °F60 %29.79 in12.0 miSE (130°)1.2 mphOvercast
8:00 PM78.8 °F68.0 °F69 %29.77 in6.2 miVariable1.2 mphMostly Cloudy
8:30 PM78.8 °F66.2 °F65 %29.77 in6.2 miSouth (170°)4.6 mphMostly Cloudy
9:00 PM78.8 °F68.0 °F69 %29.80 in6.2 miVariable3.5 mphMostly Cloudy
9:30 PM78.8 °F68.0 °F69 %29.80 in6.2 miEast (90°)3.5 mphMostly Cloudy
10:00 PM77.0 °F68.0 °F74 %29.80 in6.2 miVariable3.5 mphMostly Cloudy
10:30 PM77.0 °F68.0 °F74 %29.80 in6.2 miENE (70°)3.5 mphMostly Cloudy
11:00 PM77.0 °F68.0 °F74 %29.80 in6.2 miEast (90°)3.5 mphScattered Clouds
11:30 PM77.0 °F68.0 °F74 %29.80 in6.2 miVariable3.5 mphScattered Clouds
Hourly data recorded from NTAA, located miles away from Hitiaa, French Polynesia







STORIES FROM OUR PARTNERS